DELTA 1 DEB, 14480

Orbit data source: Space-Track

DELTA 1 DEB, 14480 is space debris in SSO originally from a launch on Tue, 06 Nov 1973 UTC launched from the Air Force Western Test Range (AFWTR). Debris objects in space refer to the collection of defunct objects orbiting the Earth. Examples of debris include non-operational satellites, rocket bodies, and fragments generated from explosions, collisions, or faulty payload assembly.

Loading next visibility...
Identifier
14480, 1973-086GR
Orbit
SSO
Country
Flag of USUS
Related business
Manufacturer
Unknown
Mission
Spacecraft
Bus & Motor
Unknown
Mass
Unknown
Launch date (UTC)
1973-11-06 (52 years ago)
Launch vehicle
Unknown
Launch site
Air Force Western Test Range (AFWTR)
Object type
Payload
Rocket body
Debris
Shape & HBR
Unknown shape, 0.1 m
Radar Cross Section
Small (<0.1 m²)

Expand to show TLE details & history
Last TLE update: 8 hours ago

TLE from 8 hours ago
0 DELTA 1 DEB
1 14480U 73086GR  25292.22465204  .00079287  00000-0  47084-1 0  9993
2 14480 102.6895  34.4063 0076326 254.9335 169.4119 14.05466703 25290
Epoch: 2025-10-19T05:23Z
TLE epoch observation values (Epoch: 2025-10-19T05:23:29.936Z)
Latitude
61.80833°
Longitude
-99.1144°
Altitude
939.758 km
Speed
7.36 km/s
True Right ascension
00h 38m 49s
True Declination
61° 40' 06"
Sunlit
Object was in full shadow at epoch
Visualization orbit readout
Latitude
Unknown
Longitude
Unknown
Altitude
Unknown
Speed
Unknown
Apparent Right ascension
Unknown
Apparent Declination
Unknown
Sunlit
N/A
Visualization observer readout
Local Sidereal Time
08:23:11
Azimuth
Unknown
Elevation
Unknown
Doppler factor
Unknown
Orbital elements
Apogee altitude
927.675 km
Perigee altitude
816.995 km
Semi-major axis
7,250.472 km
Eccentricity
0.00763
Inclination
102.6895°
RAAN
34.4063°
Arg. of periapsis
254.9335°
True anomaly
169.57112°
Mean anomaly
169.4119°
Eccentric anomaly
169.49166°
Mean motion
3.51555 °/min
Orbital period
102.4 mins
BSTAR
0.047084
Loading maneuver chart data...
Computing Atmospheric mass density...
Loading historical data...
Loading historical data...
Loading historical data...
Loading historical data...
Loading historical data...
Loading historical data...
Loading historical data...

Documentation

Showing up to 5 results
|